{"data":{"norad_id":55431,"epoch":"2026-05-25T00:47:12.496128Z","epoch_age_seconds":68065,"freshness":"FRESH","line1":"1 55431U 23014AS  26145.03278352  .00000344  00000+0  36652-4 0  9992","line2":"2 55431  69.9994 252.1257 0003199 268.7440  91.3352 14.98330865182992","mean_motion":14.98330865,"eccentricity":0.0003199,"inclination_deg":69.9994,"raan_deg":252.1257,"arg_perigee_deg":268.744,"mean_anomaly_deg":91.3352,"bstar":3.6652e-5,"rev_number":18299,"period_min":96.106943642251,"perigee_km":569.82985015446,"apogee_km":574.27658185466,"semimajor_km":6950.1902160046,"source":"CELESTRAK","updated_at":"2026-05-25T13:38:17.800138Z"}}